Overview Statistics Trail Chart Weather Telemetry Raw packets
 

This is the latest recevied weather packets stored in our database for station/object KK6MIG-13. If no packets are shown the sender has not sent any weather packets the latest 10 day(s).

<< 409 410 411 412 413 414 415 >>
Time Temp. Humidity Pressure Rain* Wind** Luminosity Snow
1788046387 16.67° C 31% 1013 hPa 0 mm - 589 W/m² -
1788046326 16.67° C 32% 1013 hPa 0 mm - 594 W/m² -
1788046266 16.67° C 33% 1013 hPa 0 mm - 596 W/m² -
1788046206 16.67° C 35% 1013.1 hPa 0 mm - 599 W/m² -
1788046143 16.67° C 37% 1013.1 hPa 0 mm - 603 W/m² -
1788046083 16.67° C 34% 1013.1 hPa 0 mm - 603 W/m² -
1788046023 16.67° C 34% 1013.1 hPa 0 mm - 605 W/m² -
1788045962 16.67° C 35% 1013.1 hPa 0 mm - 612 W/m² -
1788045902 16.67° C 35% 1013.1 hPa 0 mm - 613 W/m² -
1788045843 16.67° C 35% 1013.2 hPa 0 mm - 615 W/m² -
1788045782 16.67° C 37% 1013.2 hPa 0 mm - 617 W/m² -
1788045723 17.22° C 36% 1013.1 hPa 0 mm - 621 W/m² -
1788045671 17.22° C 31% 1013.2 hPa 0 mm - 626 W/m² -
1788045667 17.22° C 32% 1013.2 hPa 0 mm - 624 W/m² -
1788045542 17.22° C 31% 1013.2 hPa 0 mm - 629 W/m² -
1788045482 16.67° C 28% 1013.1 hPa 0 mm - 633 W/m² -
1788045422 16.67° C 30% 1013.1 hPa 0 mm - 633 W/m² -
1788045363 16.67° C 30% 1013.1 hPa 0 mm - 633 W/m² -
1788045303 16.67° C 34% 1013.2 hPa 0 mm - 645 W/m² -
1788045243 16.67° C 34% 1013.2 hPa 0 mm - 645 W/m² -
1788045183 16.67° C 34% 1013.1 hPa 0 mm - 645 W/m² -
1788045116 16.67° C 34% 1013.2 hPa 0 mm - 652 W/m² -
1788045056 17.22° C 30% 1013.2 hPa 0 mm - 650 W/m² -
1788044997 16.67° C 32% 1013.2 hPa 0 mm - 659 W/m² -
1788044937 16.67° C 33% 1013.2 hPa 0 mm - 664 W/m² -

* Rain latest hour (hover to see other rain measurements)
** Current wind speed in m/s (hover to see current wind gust speed)